Home   Weather   Ingolstadt   Past weeks

Flag for Germany Past Weather in Ingolstadt, Bavaria, Germany — Yesterday and Last 2 Weeks

Now
75 °F

Passing clouds.


Feels Like: 78 °F
Forecast: 56 / 78 °F
Wind: 16 mph from West

Location: Ingolstadt Airport

Current Time: Jun 24, 2017 at 12:38:29 pm

Latest Report: Jun 24, 2017 at 11:20 am


Visibility: N/A

Pressure: 30.07 "Hg

Humidity: 47%

Dew Point: 54 °F

Location of IngolstadtLocation

Past Weather in Ingolstadt — Graph

°F

Ingolstadt Temperature Yesterday

Maximum temperature yesterday: 84 °F (at 2:20 pm)
Minimum temperature yesterday: 66 °F (at 11:20 pm)
Average temperature yesterday: 78 °F

High & Low Weather Summary for the Past Weeks

 TemperatureHumidityPressure
High91 °F (Jun 22, 4:20 pm)94% (Jun 10, 2:20 am)30.30 "Hg (Jun 10, 2:20 am)
Low48 °F (Jun 18, 5:20 am)24% (Jun 22, 4:20 pm)29.89 "Hg (Jun 22, 9:20 pm)
Average69 °F59%30.08 "Hg
* Reported Jun 9 11:20 am — Jun 24 11:20 am, Ingolstadt. Weather by CustomWeather, © 2017

Note: Actual official high and low records may vary slightly from our data, if they occured in-between our weather recording intervals... More about our weather records

Advertising

Ingolstadt Weather History for the Previous 24 Hours

Scroll right to see more
 ConditionsComfort  
Time TempWeatherWind HumidityBarometerVisibility
11:20 am
Sat, Jun 24
75 °FPassing clouds.16 mph47%30.07 "HgN/A
10:20 am73 °FPassing clouds.13 mph50%30.07 "HgN/A
9:20 am72 °FPassing clouds.13 mph53%30.09 "HgN/A
8:20 am72 °FPassing clouds.12 mph53%30.09 "HgN/A
7:20 am66 °FMild.7 mph64%30.09 "Hg6 mi
6:20 am63 °FMild.7 mph77%30.09 "Hg5 mi
5:20 am59 °FCool.2 mph82%30.07 "Hg5 mi
4:20 am61 °FCool.5 mph77%30.07 "Hg4 mi
3:20 am63 °FMild.2 mph73%30.07 "Hg4 mi
2:20 am63 °FMild.3 mph73%30.07 "Hg5 mi
1:20 am61 °FCool.3 mph77%30.07 "Hg4 mi
12:20 am64 °FMild.3 mph68%30.07 "Hg4 mi
11:20 pm
Fri, Jun 23
66 °FMild.2 mph60%30.07 "Hg4 mi
10:20 pm72 °FMild.3 mph50%30.04 "Hg4 mi
9:20 pm75 °FMild.5 mph41%30.01 "Hg4 mi
8:20 pm81 °FPleasantly warm.12 mph34%30.01 "HgN/A
7:20 pm82 °FPleasantly warm.15 mph35%29.98 "Hg5 mi
6:20 pm84 °FPartly sunny.16 mph35%29.98 "HgN/A
5:20 pm84 °FPartly sunny.21 mph37%29.98 "HgN/A
4:20 pm84 °FPartly sunny.17 mph40%29.98 "HgN/A
3:20 pm84 °FPartly sunny.18 mph40%29.98 "HgN/A
2:20 pm84 °FPartly sunny.23 mph40%29.98 "HgN/A
1:20 pm82 °FPartly sunny.21 mph42%30.01 "HgN/A
12:20 pm82 °FPartly sunny.17 mph45%30.01 "HgN/A
Weather by CustomWeather, © 2017

See weather overviewHow to use our weather pages